This is the latest recevied weather packets stored in our database for station/object IU3IOK-3. If no packets are shown the sender has not sent any weather packets the latest 10 day(s).
| Time | Temp. | Humidity | Pressure | Rain* | Wind** | Luminosity | Snow |
|---|---|---|---|---|---|---|---|
| 1777007501 | 13.33° C | 64% | 1018.3 hPa | - | - | - | - |
| 1777006602 | 12.78° C | 66% | 1018.4 hPa | - | - | - | - |
| 1777005702 | 12.78° C | 67% | 1018.2 hPa | - | - | - | - |
| 1777004802 | 12.78° C | 68% | 1018 hPa | - | - | - | - |
| 1777003902 | 12.78° C | 70% | 1018 hPa | - | - | - | - |
| 1777003002 | 12.78° C | 69% | 1018 hPa | - | - | - | - |
| 1777002101 | 12.78° C | 68% | 1017.9 hPa | - | - | - | - |
| 1777001202 | 12.78° C | 69% | 1017.8 hPa | - | - | - | - |
| 1777000301 | 12.78° C | 69% | 1017.9 hPa | - | - | - | - |
| 1776999401 | 13.33° C | 69% | 1017.8 hPa | - | - | - | - |
| 1776998502 | 13.33° C | 69% | 1017.8 hPa | - | - | - | - |
| 1776997601 | 12.78° C | 70% | 1017.9 hPa | - | - | - | - |
| 1776996701 | 13.33° C | 69% | 1017.9 hPa | - | - | - | - |
| 1776995801 | 13.33° C | 68% | 1018 hPa | - | - | - | - |
| 1776994901 | 13.33° C | 67% | 1017.9 hPa | - | - | - | - |
| 1776994001 | 13.33° C | 66% | 1017.8 hPa | - | - | - | - |
| 1776993101 | 13.89° C | 64% | 1017.9 hPa | - | - | - | - |
| 1776992201 | 13.89° C | 62% | 1017.9 hPa | - | - | - | - |
| 1776991301 | 13.89° C | 59% | 1017.9 hPa | - | - | - | - |
| 1776990401 | 14.44° C | 57% | 1017.9 hPa | - | - | - | - |
| 1776989501 | 14.44° C | 54% | 1017.8 hPa | - | - | - | - |
| 1776988601 | 14.44° C | 53% | 1017.7 hPa | - | - | - | - |
| 1776987701 | 14.44° C | 54% | 1017.9 hPa | - | - | - | - |
| 1776986801 | 14.44° C | 54% | 1017.9 hPa | - | - | - | - |
| 1776985901 | 15° C | 52% | 1017.9 hPa | - | - | - | - |
* Rain since midnight (hover to see other rain measurements)
** Current wind speed in m/s (hover to see current wind gust speed)